Back to catalog

STARLINK-11472

AliveCommunicationsVLEO
NORAD 62067·PAYLOAD·🇺🇸 United States

Launched Nov 24, 2024 from Vandenberg Space Force Base

Loading…

Next Passes (next 24 hours)

TLE

FreshSource: CelesTrak SupGP

Epoch: Sep 14, 2026, 14:29 UTC

1 62067C 24217L   26257.60395833 -.00028029  00000+0 -23098-3 0  2570
2 62067  53.1574 220.3314 0001269  90.8683 130.8771 15.69713150    11

Track STARLINK-11472 in real time with AllMySat

Download on the App Store